Location: Maccacari
(45.1333°N, 11.1333°E)
Time: 23:22:05
(UTC+00:00)

In-Cosmos 22 - Pass Details

Date: 18 September 2020
Orbit: 785 x 877 km, 81.2° (Epoch: 25 October)

Event Time Altitude Azimuth Distance (km) Brightness Sun altitude
Rises 19:09:15 0° 347° (NNW) 3,287 7.8 -19.5°
Reaches altitude 10° 19:11:37 10° 345° (NNW) 2,355 7.0 -19.9°
Maximum altitude 19:16:53 70° 263° (W) 844 4.3 -20.8°
Enters shadow 19:21:22 15° 182° (S) 2,055 6.0 -21.5°
